Location: Evensen
(52.5775°N, 9.5258°E)
Time: 11:11:51
(UTC+00:00)

Lacrosse 4 Rocket - Pass Details

Date: 15 May 2026
Orbit: 504 x 567 km, 68.0° (Epoch: 8 June)

Event Time Altitude Azimuth Distance (km) Brightness Sun altitude
Exits shadow 22:42:30 20° 109° (ESE) 1,284 2.9 -18.0°
Drops below altitude 10° 22:45:25 10° 63° (ENE) 1,817 4.2 -18.0°
Sets 22:48:05 0° 47° (NE) 2,729 5.4 -18.1°
